Pompano Beach, FL

6:49 AM EST on February 24, 2017 (GMT -0500)
Pompano Beach

Weather History for KPMP - August, 2014

Change the Weather History Date:

Sunday, August 24, 2014

  Actual Average Record
Temperature  
Mean Temperature 86 °F -  
Max Temperature 93 °F 92 °F 95 °F (1973)
Min Temperature 80 °F 74 °F 0 °F (2013)
Cooling Degree Days 20    
Growing Degree Days 36 (Base 50)    
Moisture  
Dew Point 74 °F    
Average Humidity 67    
Maximum Humidity 85    
Minimum Humidity 52    
Precipitation  
Precipitation 0.00 in - - ()
Sea Level Pressure  
Sea Level Pressure 29.82 in    
Wind  
Wind Speed 6 mph (NE)    
Max Wind Speed 15 mph    
Max Gust Speed 23 mph    
Visibility 10 miles    
Events      
Averages and records for this station are not official NWS values.
T = Trace of Precipitation, MM = Missing Value Source: NWS Daily Summary

Daily Weather History Graph

Daily Weather History Graph

Search for Another Location

Airport or City:

Trip Planner

Search our weather history database for the weather conditions in past years. The results will help you decide how hot, cold, wet, or windy it might be!

Date:

Astronomy

Aug. 24, 2014 Rise Set
Actual Time 6:56 AM EDT 7:48 PM EDT
Civil Twilight 6:33 AM EDT 8:11 PM EDT
Nautical Twilight 6:05 AM EDT 8:39 PM EDT
Astronomical Twilight 5:36 AM EDT 9:08 PM EDT
Moon 6:05 AM EDT 7:08 PM EDT
Length of Visible Light 13h 38m
Length of Day
12h 51m
Waning Crescent, 1% of the Moon is Illuminated
Aug 24
Waning Crescent
Aug 25
New
Sep 2
First Quarter
Sep 8
Full
Sep 15
Last Quarter

Hourly Weather History & Observations

Time (EDT) Temp. Heat Index Dew Point Humidity Pressure Visibility Wind Dir Wind Speed Gust Speed Precip Events Conditions
12:53 AM 84.9 °F 91.4 °F 73.0 °F 67% 29.88 in 10.0 mi ESE 6.9 mph - N/A   Unknown
1:53 AM 84.9 °F 91.4 °F 73.0 °F 67% 29.86 in 10.0 mi East 5.8 mph - N/A   Unknown
2:53 AM 84.0 °F 91.2 °F 73.9 °F 72% 29.85 in 10.0 mi ESE 3.5 mph - N/A   Unknown
3:53 AM 82.0 °F 87.9 °F 73.9 °F 76% 29.83 in 10.0 mi Calm Calm - N/A   Unknown
4:53 AM 81.0 °F 86.2 °F 73.9 °F 79% 29.84 in 10.0 mi NNW 5.8 mph - N/A   Unknown
5:53 AM 80.1 °F 84.5 °F 73.9 °F 81% 29.83 in 10.0 mi Calm Calm - N/A   Unknown
6:53 AM 80.1 °F 85.1 °F 75.0 °F 85% 29.83 in 9.0 mi Calm Calm - N/A   Unknown
7:53 AM 82.0 °F 88.6 °F 75.0 °F 79% 29.85 in 10.0 mi NNW 4.6 mph - N/A   Partly Cloudy
8:53 AM 87.1 °F 96.3 °F 75.0 °F 67% 29.86 in 10.0 mi NNW 5.8 mph - N/A   Partly Cloudy
9:53 AM 88.0 °F 96.5 °F 73.9 °F 63% 29.86 in 10.0 mi NW 8.1 mph - N/A   Partly Cloudy
10:53 AM 90.0 °F 97.9 °F 73.0 °F 57% 29.86 in 10.0 mi NNW 5.8 mph - N/A   Scattered Clouds
11:53 AM 91.9 °F 103.2 °F 75.0 °F 58% 29.86 in 10.0 mi ENE 9.2 mph - N/A   Scattered Clouds
12:53 PM 91.9 °F 101.3 °F 73.9 °F 55% 29.84 in 10.0 mi ENE 11.5 mph - N/A   Scattered Clouds
1:53 PM 91.9 °F 99.5 °F 72.0 °F 52% 29.83 in 10.0 mi ENE 15.0 mph - N/A   Scattered Clouds
2:53 PM 91.9 °F 101.3 °F 73.9 °F 55% 29.81 in 10.0 mi NE 12.7 mph 23.0 mph N/A   Unknown
3:53 PM 91.9 °F 100.7 °F 73.0 °F 54% 29.78 in 10.0 mi NE 10.4 mph - N/A   Partly Cloudy
4:53 PM 91.9 °F 101.3 °F 73.9 °F 55% 29.77 in 10.0 mi NE 9.2 mph - N/A   Partly Cloudy
5:53 PM 90.0 °F 99.0 °F 73.9 °F 59% 29.77 in 10.0 mi ENE 10.4 mph - N/A   Unknown
6:53 PM 88.0 °F 97.5 °F 75.0 °F 65% 29.76 in 10.0 mi East 8.1 mph - N/A   Unknown
7:53 PM 87.1 °F 97.3 °F 75.9 °F 69% 29.76 in 10.0 mi NE 8.1 mph - N/A   Unknown
8:53 PM 86.0 °F 96.0 °F 75.9 °F 72% 29.78 in 10.0 mi NE 5.8 mph - N/A   Clear
10:53 PM 86.0 °F 96.9 °F 77.0 °F 74% 29.79 in 10.0 mi Calm Calm - N/A   Unknown
11:53 PM 84.9 °F 95.3 °F 77.0 °F 77% 29.81 in 10.0 mi North 3.5 mph - N/A   Unknown